COSMOS 2251 DEB, 37483

Orbit data source: Space-Track

COSMOS 2251 DEB, 37483 is space debris in LEO originally from a launch on Wed, 16 Jun 1993 UTC launched from the Plesetsk Missile And Space Complex (PKMTR). The debris from Iridium 33, an American commercial communications satellite, has been tracked extensively since its accidental collision with the defunct Russian satellite Cosmos 2251 in 2009. This event, occurring at high speed in low Earth orbit (LEO), generated thousands of pieces of space debris, significantly increasing the risk of further collisions. The Iridium 33 debris cloud has impacted space traffic management and orbital debris mitigation strategies, making it a subject of ongoing study in space situational awareness.

Loading next visibility...
Identifier
37483, 1993-036BLL
Orbit
LEO
Country
Flag of CISCIS
Related business
Manufacturer
Unknown
Mission
Spacecraft
Bus & Motor
Unknown
Mass
Unknown
Launch date (UTC)
1993-06-16 (33 years ago)
Launch vehicle
Unknown
Launch site
Plesetsk Missile And Space Complex (PKMTR)
Object type
Payload
Rocket body
Debris
Shape & HBR
Unknown shape, 0.1 m
Radar Cross Section
Small (<0.1 m²)

Expand to show TLE details & history
Last TLE update: 1 day ago

TLE from 1 day ago
0 COSMOS 2251 DEB
1 37483U 93036BLL 26168.24859328  .00000542  00000-0  15915-3 0  9995
2 37483  73.9729 155.2704 0093338 318.6923  40.7198 14.43859370679719
Epoch: 2026-06-17T05:57Z
TLE epoch observation values (Epoch: 2026-06-17T05:57:58.459Z)
Latitude
0.00004°
Longitude
160.26784°
Altitude
698.256 km
Speed
7.533 km/s
True Right ascension
10h 21m 04s
True Declination
0° 00' 00"
Sunlit
Object was in daylight at epoch
Visualization orbit readout
Latitude
Unknown
Longitude
Unknown
Altitude
Unknown
Speed
Unknown
Apparent Right ascension
Unknown
Apparent Declination
Unknown
Sunlit
N/A
Visualization observer readout
Local Sidereal Time
02:28:39
Azimuth
Unknown
Elevation
Unknown
Doppler factor
Unknown
Orbital elements
Apogee altitude
809.867 km
Perigee altitude
676.925 km
Semi-major axis
7,121.533 km
Eccentricity
0.00933
Inclination
73.9729°
RAAN
155.2704°
Arg. of periapsis
318.6923°
True anomaly
41.42375°
Mean anomaly
40.7198°
Eccentric anomaly
41.07115°
Mean motion
3.61146 °/min
Orbital period
99.68 mins
BSTAR
0.00015915

Documentation

Showing up to 5 results
|